📊 Raw Sensor Data
Showing records 51176 to 51200 of 85,145 total
| ID | Distance (ft) | Battery V | Battery A | Int Temp (°F) | Int Humid (%) | Ext Temp (°F) | Solar V | RSSI | SNR | Time Stamp |
|---|---|---|---|---|---|---|---|---|---|---|
| 33982 | 14.9 | 3.93 | -5 | 49 | 39 | 49 | 0.10 | -75 | 8 | 03/03/2025 10:00 PM |
| 33981 | 14.8 | 3.93 | -5 | 49 | 39 | 50 | 0.00 | -74 | 7 | 03/03/2025 09:45 PM |
| 33980 | 14.8 | 3.99 | -5 | 50 | 39 | 51 | 0.00 | -74 | 6 | 03/03/2025 09:00 PM |
| 33979 | 14.8 | 3.93 | -5 | 50 | 39 | 51 | 0.00 | -73 | 8 | 03/03/2025 08:45 PM |
| 33978 | 14.8 | 3.99 | -5 | 50 | 39 | 50 | 0.00 | -74 | 8 | 03/03/2025 08:30 PM |
| 33977 | 14.8 | 3.93 | -5 | 50 | 39 | 51 | 0.00 | -73 | 8 | 03/03/2025 08:15 PM |
| 33976 | 14.8 | 3.99 | -5 | 50 | 39 | 51 | 0.10 | -74 | 7 | 03/03/2025 08:00 PM |
| 33975 | 14.8 | 3.94 | -5 | 51 | 40 | 51 | 0.00 | -74 | 8 | 03/03/2025 07:45 PM |
| 33974 | 14.8 | 3.94 | -5 | 51 | 40 | 52 | 0.10 | -77 | 8 | 03/03/2025 07:30 PM |
| 33973 | 14.8 | 3.94 | -5 | 52 | 40 | 52 | 0.00 | -78 | 7 | 03/03/2025 07:15 PM |
| 33972 | 14.8 | 3.94 | -5 | 52 | 41 | 53 | 0.00 | -76 | 8 | 03/03/2025 07:00 PM |
| 33971 | 14.8 | 3.94 | -5 | 52 | 41 | 53 | 0.00 | -77 | 8 | 03/03/2025 06:45 PM |
| 33970 | 14.8 | 4.00 | -5 | 53 | 42 | 54 | 0.00 | -78 | 8 | 03/03/2025 06:30 PM |
| 33969 | 14.8 | 3.94 | -5 | 53 | 43 | 53 | 0.50 | -78 | 8 | 03/03/2025 06:15 PM |
| 33968 | 14.8 | 3.96 | 0 | 57 | 44 | 56 | 4.50 | -77 | 7 | 03/03/2025 05:45 PM |
| 33967 | 14.8 | 4.05 | 7 | 59 | 44 | 57 | 4.50 | -75 | 8 | 03/03/2025 05:30 PM |
| 33966 | 14.8 | 4.02 | 28 | 63 | 43 | 59 | 4.50 | -75 | 7 | 03/03/2025 05:15 PM |
| 33965 | 14.8 | 3.99 | 0 | 67 | 42 | 61 | 5.10 | -76 | 8 | 03/03/2025 05:00 PM |
| 33964 | 14.9 | 4.01 | 6 | 71 | 41 | 64 | 5.10 | -78 | 8 | 03/03/2025 04:30 PM |
| 33963 | 14.9 | 4.00 | 6 | 76 | 38 | 63 | 5.10 | -76 | 7 | 03/03/2025 04:15 PM |
| 33962 | 14.9 | 4.05 | 6 | 77 | 37 | 67 | 5.10 | -78 | 7 | 03/03/2025 04:00 PM |
| 33961 | 14.9 | 3.99 | 0 | 77 | 36 | 67 | 5.10 | -79 | 8 | 03/03/2025 03:45 PM |
| 33960 | 14.9 | 3.99 | 0 | 77 | 36 | 68 | 5.10 | -79 | 7 | 03/03/2025 03:30 PM |
| 33959 | 14.9 | 4.06 | 6 | 74 | 35 | 67 | 5.10 | -75 | 7 | 03/03/2025 03:00 PM |
| 33958 | 14.9 | 3.99 | 0 | 69 | 38 | 64 | 5.10 | -78 | 8 | 03/03/2025 02:30 PM |